Location: Unspecified
(0.0000°N, 0.0000°E)
Time: 16:04:56
(UTC+00:00)

Tiangong - Visible Passes

Search period start: 03 October 2024 00:00
Search period end: 13 October 2024 00:00
Orbit: 375 x 379 km, 41.5° (Epoch: 03 October)

Date Brightness Start Highest point End Pass type
(mag) Time Alt. Az. Time Alt. Az. Time Alt. Az.
05 Oct -0.5 18:58:06 10° NNW 18:59:42 22° N 18:59:42 22° N visible
06 Oct 0.4 19:31:46 10° WNW 19:33:11 21° W 19:33:11 21° W visible
07 Oct -2.3 18:28:38 10° NW 18:31:42 71° NE 18:34:33 12° SE visible
08 Oct 0.8 19:03:13 10° W 19:05:05 15° SW 19:06:58 10° S visible
09 Oct 0.9 04:55:30 10° SSE 04:57:03 13° SE 04:58:36 10° ESE visible
11 Oct -0.2 04:25:07 18° S 04:26:36 27° SE 04:29:15 10° ENE visible
12 Oct -1.5 04:57:46 21° W 04:59:15 33° NW 05:02:03 10° NNE visible
